Powrót do katalogu

CZ-6A DEB

AktywnyPO
NORAD 54294·DEBRIS·🇨🇳 China

Wystrzelony Nov 11, 2022 z Taiyuan Satellite Launch Center

Loading…

Następne Przeloty (najbliższe 24 godziny)

TLE

ŚwieżeSource: Space-Track

Epoka: Sep 14, 2026, 06:41 UTC

1 54294U 22151AM  26257.27872570  .00003920  00000-0  55438-3 0  9997
2 54294  98.7596  10.8324 0109690 297.8006  61.2115 14.73717721204153

Śledź CZ-6A DEB w czasie rzeczywistym z AllMySat

Download on the App Store